Date String (YYYY-MM-DD hh:mm:ss) UTC,Instrument flags,Ambient pressure (hPa),Sample flow (lpm),Bypass flow (lpm),Sample temperature (°C),Ambient temperature (°C),ASC tube jacket temperature (°C),LED temperature (°C),Box temperature (°C),Sample RH (%),Span deviation,Mass concentration (μg/m³),Mass concentration (μg/m³),Mass concentration (μg/m³)
DateTimeUTC,F1_M11,P_M11,Q1_M11,Q2_M11,T1_M11,T2_M11,T3_M11,T4_M11,T5_M11,U1_M11,ZSPAN_M11,X0_M11,X2_M11,X1_M11
2022-01-12 16:00:00,,0831.7,4.99,0.00,23.7,23.2,00.0,32.6,25.5,09.2,0000.0,0001.40,0000.04,0000.00
2022-01-12 16:01:00,,0831.7,5.01,0.00,23.7,23.2,00.0,32.6,25.6,09.2,0000.0,0001.31,0000.03,0000.00
2022-01-12 16:02:00,,0831.7,5.00,0.00,23.7,23.2,00.0,32.6,25.6,09.3,0000.0,0001.24,0000.02,0000.00
2022-01-12 16:03:00,,0831.7,5.00,0.00,23.8,23.3,00.0,32.6,25.6,09.4,0000.0,0001.24,0000.02,0000.00
2022-01-12 16:04:00,,0831.8,5.00,0.00,23.8,23.3,00.0,32.6,25.6,09.4,0000.0,0001.24,0000.02,0000.00
2022-01-12 16:05:00,,0831.9,5.01,0.00,23.8,23.3,00.0,32.7,25.6,10.0,0000.0,0001.22,0000.02,0000.00
2022-01-12 16:06:00,,0831.8,5.00,0.00,23.8,23.3,00.0,32.7,25.7,10.0,0000.0,0001.15,0000.01,0000.00
2022-01-12 16:07:00,,0831.8,5.00,0.00,23.8,23.3,00.0,32.7,25.7,09.5,0000.0,0001.18,0000.02,0000.00
2022-01-12 16:08:00,,0831.8,5.01,0.00,23.8,23.3,00.0,32.7,25.7,09.5,0000.0,0001.18,0000.03,0000.00
2022-01-12 16:09:00,,0831.8,5.00,0.00,23.9,23.4,00.0,32.7,25.7,09.4,0000.0,0001.18,0000.03,0000.00
2022-01-12 16:10:00,,0831.7,5.01,0.00,23.9,23.4,00.0,32.8,25.7,09.7,0000.0,0000.58,0000.02,0000.00
2022-01-12 16:11:00,,0831.7,5.00,0.00,23.9,23.4,00.0,32.8,25.7,09.7,0000.0,0000.04,0000.02,0000.00
2022-01-12 16:12:00,,0831.7,4.98,0.00,23.9,23.4,00.0,32.8,25.7,09.5,0000.0,0000.04,0000.02,0000.00
2022-01-12 16:13:00,,0831.8,5.01,0.00,23.9,23.4,00.0,32.8,25.7,09.6,0000.0,0000.08,0000.03,0000.00
2022-01-12 16:14:00,,0831.7,4.99,0.00,23.9,23.4,00.0,32.8,25.8,09.4,0000.0,0000.13,0000.05,0000.01
2022-01-12 16:15:00,,0831.9,5.01,0.00,23.9,23.4,00.0,32.8,25.7,08.8,0000.0,0000.13,0000.05,0000.01
2022-01-12 16:16:00,,0831.7,4.99,0.00,23.9,23.3,00.0,32.8,25.7,08.6,0000.0,0000.15,0000.05,0000.01
2022-01-12 16:17:00,,0831.7,5.02,0.00,23.9,23.3,00.0,32.8,25.8,08.7,0000.0,0000.17,0000.06,0000.01
2022-01-12 16:18:00,,0831.7,4.99,0.00,24.0,23.4,00.0,32.9,25.8,09.0,0000.0,0000.13,0000.04,0000.01
2022-01-12 16:19:00,,0831.8,5.00,0.00,24.0,23.4,00.0,32.9,25.8,08.9,0000.0,0000.28,0000.05,0000.01
2022-01-12 16:20:00,,0831.8,4.99,0.00,24.0,23.4,00.0,32.9,25.9,08.6,0000.0,0000.28,0000.05,0000.01
2022-01-12 16:21:00,,0831.8,5.00,0.00,24.0,23.4,00.0,32.9,25.9,08.3,0000.0,0000.29,0000.05,0000.01
2022-01-12 16:22:00,,0831.8,5.02,0.00,24.0,23.4,00.0,32.9,25.9,08.4,0000.0,0000.31,0000.06,0000.01
2022-01-12 16:23:00,,0831.9,5.00,0.00,24.0,23.4,00.0,32.9,25.9,09.0,0000.0,0000.38,0000.08,0000.01
2022-01-12 16:24:00,,0832.0,5.00,0.00,24.0,23.5,00.0,32.9,25.9,09.2,0000.0,0000.43,0000.10,0000.00
2022-01-12 16:25:00,,0832.0,5.01,0.00,24.1,23.5,00.0,32.9,25.9,09.1,0000.0,0000.52,0000.09,0000.00
2022-01-12 16:26:00,,0832.0,4.99,0.00,24.1,23.5,00.0,32.9,26.0,09.3,0000.0,0000.60,0000.09,0000.00
2022-01-12 16:27:00,,0831.9,5.00,0.00,24.1,23.5,00.0,33.0,26.0,09.0,0000.0,0000.85,0000.08,0000.00
2022-01-12 16:28:00,,0831.8,5.00,0.00,24.1,23.5,00.0,33.0,26.0,09.0,0000.0,0001.58,0000.08,0000.00
2022-01-12 16:29:00,,0831.9,5.00,0.00,24.1,23.5,00.0,33.0,26.0,09.2,0000.0,0001.58,0000.08,0000.00
2022-01-12 16:30:00,,0832.0,4.99,0.00,24.1,23.6,00.0,33.0,26.0,09.8,0000.0,0001.44,0000.07,0000.00
2022-01-12 16:31:00,,0832.0,5.00,0.00,24.2,23.6,00.0,33.0,26.0,09.8,0000.0,0001.46,0000.08,0000.00
2022-01-12 16:32:00,,0832.1,5.01,0.00,24.2,23.6,00.0,33.0,26.0,09.6,0000.0,0001.46,0000.08,0000.00
2022-01-12 16:33:00,,0832.1,5.00,0.00,24.2,23.6,00.0,33.0,26.0,09.5,0000.0,0001.43,0000.06,0000.00
2022-01-12 16:34:00,,0832.1,4.98,0.00,24.2,23.6,00.0,33.1,26.1,09.4,0000.0,0001.35,0000.04,0000.00
2022-01-12 16:35:00,,0832.1,5.02,0.00,24.2,23.6,00.0,33.1,26.1,09.4,0000.0,0001.32,0000.04,0000.00
2022-01-12 16:36:00,,0832.2,5.00,0.00,24.2,23.7,00.0,33.1,26.1,09.7,0000.0,0001.17,0000.04,0000.00
2022-01-12 16:37:00,,0832.2,4.99,0.00,24.2,23.7,00.0,33.1,26.1,09.5,0000.0,0001.09,0000.04,0000.00
2022-01-12 16:38:00,,0832.2,5.00,0.00,24.3,23.7,00.0,33.1,26.2,09.4,0000.0,0000.73,0000.04,0000.00
2022-01-12 16:39:00,,0832.1,5.01,0.00,24.3,23.7,00.0,33.1,26.1,09.3,0000.0,0000.09,0000.04,0000.01
2022-01-12 16:40:00,,0832.1,4.99,0.00,24.3,23.7,00.0,33.1,26.2,09.4,0000.0,0000.10,0000.04,0000.01
2022-01-12 16:41:00,,0832.1,5.00,0.00,24.3,23.8,00.0,33.2,26.2,09.6,0000.0,0000.10,0000.04,0000.01
2022-01-12 16:42:00,,0832.1,5.01,0.00,24.3,23.8,00.0,33.2,26.2,09.7,0000.0,0000.09,0000.04,0000.01
2022-01-12 16:43:00,,0832.1,4.99,0.00,24.3,23.8,00.0,33.2,26.2,09.6,0000.0,0000.12,0000.05,0000.01
2022-01-12 16:44:00,,0832.1,5.00,0.00,24.3,23.8,00.0,33.2,26.3,10.0,0000.0,0000.12,0000.05,0000.01
2022-01-12 16:45:00,,0832.1,4.99,0.00,24.4,23.8,00.0,33.2,26.3,10.2,0000.0,0000.12,0000.05,0000.01
2022-01-12 16:46:00,,0832.1,5.01,0.00,24.4,23.9,00.0,33.2,26.3,09.6,0000.0,0000.11,0000.03,0000.00
2022-01-12 16:47:00,,0832.1,4.99,0.00,24.4,23.9,00.0,33.3,26.3,09.3,0000.0,0000.13,0000.04,0000.00
2022-01-12 16:48:00,,0832.1,5.01,0.00,24.4,23.9,00.0,33.3,26.3,09.4,0000.0,0000.13,0000.04,0000.01
2022-01-12 16:49:00,,0832.1,4.99,0.00,24.4,23.9,00.0,33.3,26.3,09.7,0000.0,0000.13,0000.04,0000.01
2022-01-12 16:50:00,,0832.1,5.00,0.00,24.4,23.9,00.0,33.3,26.3,09.7,0000.0,0000.11,0000.03,0000.00
2022-01-12 16:51:00,,0832.0,5.01,0.00,24.4,23.8,00.0,33.3,26.3,09.6,0000.0,0000.11,0000.03,0000.00
2022-01-12 16:52:00,,0832.1,5.00,0.00,24.4,23.8,00.0,33.3,26.3,09.7,0000.0,0000.11,0000.03,0000.00
2022-01-12 16:53:00,,0832.1,5.00,0.00,24.4,23.8,00.0,33.3,26.3,09.7,0000.0,0000.10,0000.03,0000.00
2022-01-12 16:54:00,,0832.1,4.99,0.00,24.4,23.8,00.0,33.3,26.3,10.1,0000.0,0000.05,0000.02,0000.00
2022-01-12 16:55:00,,0832.2,5.01,0.00,24.5,23.8,00.0,33.4,26.3,10.3,0000.0,0000.07,0000.02,0000.00
2022-01-12 16:56:00,,0832.1,5.00,0.00,24.5,23.8,00.0,33.4,26.3,10.2,0000.0,0001.15,0000.02,0000.00
2022-01-12 16:57:00,,0832.2,4.99,0.00,24.5,23.8,00.0,33.4,26.3,10.2,0000.0,0001.83,0000.01,0000.00
2022-01-12 16:58:00,,0832.1,5.01,0.00,24.5,23.8,00.0,33.4,26.3,10.3,0000.0,0001.82,0000.01,0000.00
2022-01-12 16:59:00,,0832.1,4.98,0.00,24.5,23.7,00.0,33.4,26.3,10.3,0000.0,0001.81,0000.01,0000.00
